This is the latest recevied weather packets stored in our database for station/object KD4MBW. If no packets are shown the sender has not sent any weather packets the latest 1 day(s).
| Time | Temp. | Humidity | Pressure | Rain* | Wind** | Luminosity | Snow |
|---|---|---|---|---|---|---|---|
| 1778022262 | 24.44° C | 67% | 1014.8 hPa | 0 mm | 6.26 m/s, 200° | 105 W/m² | - |
| 1778021954 | 24.44° C | 68% | 1014.9 hPa | 0 mm | 4.47 m/s, 186° | 125 W/m² | - |
| 1778021651 | 25° C | 67% | 1014.8 hPa | 0 mm | 4.02 m/s, 201° | 131 W/m² | - |
| 1778021346 | 25° C | 67% | 1014.9 hPa | 0 mm | 3.58 m/s, 186° | 144 W/m² | - |
| 1778021044 | 25° C | 68% | 1014.8 hPa | 0 mm | 2.68 m/s, 219° | 132 W/m² | - |
| 1778020741 | 25° C | 68% | 1014.9 hPa | 0 mm | 4.02 m/s, 204° | 183 W/m² | - |
| 1778020438 | 25° C | 69% | 1015 hPa | 0 mm | 3.58 m/s, 207° | 151 W/m² | - |
| 1778020134 | 25.56° C | 69% | 1014.9 hPa | 0 mm | 4.47 m/s, 199° | 179 W/m² | - |
| 1778019830 | 25° C | 70% | 1014.8 hPa | 0 mm | 3.13 m/s, 221° | 215 W/m² | - |
| 1778019527 | 25.56° C | 69% | 1014.7 hPa | 0 mm | 4.92 m/s, 234° | 231 W/m² | - |
| 1778019224 | 25.56° C | 70% | 1014.8 hPa | 0 mm | 4.02 m/s, 219° | 254 W/m² | - |
| 1778018921 | 25° C | 71% | 1014.7 hPa | 0 mm | 4.02 m/s, 202° | 277 W/m² | - |
| 1778018618 | 25° C | 71% | 1014.6 hPa | 0 mm | 4.02 m/s, 183° | 305 W/m² | - |
| 1778018316 | 25° C | 69% | 1014.8 hPa | 0 mm | 3.58 m/s, 213° | 179 W/m² | - |
| 1778018014 | 25.56° C | 68% | 1014.5 hPa | 0 mm | 3.58 m/s, 206° | 241 W/m² | - |
| 1778017712 | 25.56° C | 67% | 1014.9 hPa | 0 mm | 4.02 m/s, 199° | 320 W/m² | - |
| 1778017409 | 25.56° C | 66% | 1014.6 hPa | 0 mm | 4.92 m/s, 180° | 342 W/m² | - |
| 1778017106 | 26.11° C | 65% | 1014.6 hPa | 0 mm | 4.02 m/s, 203° | 356 W/m² | - |
| 1778016804 | 26.11° C | 64% | 1014.7 hPa | 0 mm | 3.58 m/s, 204° | 346 W/m² | - |
| 1778016499 | 26.11° C | 64% | 1014.8 hPa | 0 mm | 2.68 m/s, 180° | 353 W/m² | - |
| 1778016197 | 26.11° C | 64% | 1014.8 hPa | 0 mm | 4.02 m/s, 198° | 364 W/m² | - |
| 1778015892 | 26.67° C | 64% | 1014.7 hPa | 0 mm | 1.79 m/s, 255° | 376 W/m² | - |
| 1778015591 | 26.11° C | 64% | 1014.8 hPa | 0 mm | 3.58 m/s, 252° | 410 W/m² | - |
| 1778015287 | 26.67° C | 63% | 1014.9 hPa | 0 mm | 4.02 m/s, 207° | 395 W/m² | - |
| 1778014984 | 26.11° C | 64% | 1014.9 hPa | 0 mm | 2.68 m/s, 266° | 424 W/m² | - |
* Rain latest hour (hover to see other rain measurements)
** Current wind speed in m/s (hover to see current wind gust speed)